This is the latest recevied weather packets stored in our database for station/object N5JXS. If no packets are shown the sender has not sent any weather packets the latest 10 day(s).
| Time | Temp. | Humidity | Pressure | Rain* | Wind** | Luminosity | Snow |
|---|---|---|---|---|---|---|---|
| 1788066483 | 16.11° C | 63% | 1026.3 hPa | 0 mm | - | 0 W/m² | - |
| 1788066179 | 16.11° C | 64% | 1027 hPa | 0 mm | - | 0 W/m² | - |
| 1788065877 | 16.11° C | 64% | 1026.8 hPa | 0 mm | - | 0 W/m² | - |
| 1788065572 | 16.11° C | 63% | 1027 hPa | 0 mm | - | 0 W/m² | - |
| 1788065271 | 16.67° C | 63% | 1026.6 hPa | 0 mm | - | 0 W/m² | - |
| 1788064967 | 17.22° C | 62% | 1026.6 hPa | 0 mm | - | 0 W/m² | - |
| 1788064662 | 17.22° C | 61% | 1026.7 hPa | 0 mm | - | 0 W/m² | - |
| 1788064362 | 17.78° C | 60% | 1026.3 hPa | 0 mm | - | 0 W/m² | - |
| 1788064059 | 18.33° C | 56% | 1026.5 hPa | 0 mm | - | 0 W/m² | - |
| 1788063755 | 18.89° C | 52% | 1026.6 hPa | 0 mm | - | 0 W/m² | - |
| 1788063465 | 19.44° C | 48% | 1026.6 hPa | 0 mm | - | 0 W/m² | - |
| 1788063147 | 18.89° C | 45% | 1026.7 hPa | 0 mm | - | 0 W/m² | - |
| 1788062843 | 18.33° C | 46% | 1026.3 hPa | 0 mm | - | 0 W/m² | - |
| 1788062540 | 18.89° C | 46% | 1026.5 hPa | 0 mm | - | 0 W/m² | - |
| 1788062237 | 18.89° C | 45% | 1026.3 hPa | 0 mm | - | 0 W/m² | - |
| 1788061932 | 19.44° C | 45% | 1026.6 hPa | 0 mm | - | 0 W/m² | - |
| 1788061627 | 18.89° C | 43% | 1026.7 hPa | 0 mm | - | 0 W/m² | - |
| 1788061327 | 18.89° C | 45% | 1026.7 hPa | 0 mm | - | 0 W/m² | - |
| 1788061023 | 18.89° C | 46% | 1026.7 hPa | 0 mm | - | 0 W/m² | - |
| 1788060723 | 18.89° C | 47% | 1026.5 hPa | 0 mm | - | 0 W/m² | - |
| 1788060417 | 18.33° C | 46% | 1026.5 hPa | 0 mm | - | 0 W/m² | - |
| 1788060112 | 18.33° C | 47% | 1026.5 hPa | 0 mm | - | 0 W/m² | - |
| 1788059807 | 18.33° C | 48% | 1026.3 hPa | 0 mm | - | 0 W/m² | - |
| 1788059503 | 17.78° C | 49% | 1026.7 hPa | 0 mm | - | 0 W/m² | - |
| 1788059198 | 18.33° C | 49% | 1026.5 hPa | 0 mm | - | 0 W/m² | - |
* Rain latest hour (hover to see other rain measurements)
** Current wind speed in m/s (hover to see current wind gust speed)